[[{"header":{"parameterUnit":"m.s-1","parameterCategory":1,"la1":30.2991,"la2":30.254,"lo1":-89.0895,"lo2":-89.0444,"dy":0.0017,"dx":0.0017,"nx":28,"ny":28,"refTime":"2024-07-10T03:00:00:Z","depth":0,"parameterNumber":2,"parameterNumberName":"U-component_of_WINDS"},"data":[0,0,0,0,0,0,0,0,0,0,0,0,0,0,0,0,0,0,0,0,0,0,0,0,0,0,0,0,0,0,0,0,0,0,0,0,0,0,0,0,0,0,0,0,0,0,0,0,0,0,0,0,0,0,0,0,0,0,1.7859,1.786,0,1.7973,1.7974,1.7975,1.7946,1.7944,1.7942,1.794,1.8058,1.8063,1.8068,0,0,0,0,0,0,0,0,0,0,0,0,0,1.7618,1.7623,1.7859,1.7861,1.7862,1.7972,1.7974,1.7976,1.7947,1.7944,1.7941,1.7939,1.8056,1.8062,1.8069,0,0,0,0,0,0,0,0,0,0,0,0,0,1.7727,1.7624,1.7859,1.7861,1.7862,1.7972,1.7974,1.7976,1.7947,1.7944,1.7941,1.7937,1.8054,1.8062,1.807,1.8185,0,0,1.8094,1.8097,0,0,0,0,0,0,0,0,1.772,1.7735,1.7859,1.7861,1.7863,1.7942,1.7932,1.8046,1.7948,1.7915,1.794,1.7936,1.8022,1.8032,1.8061,1.8191,1.8196,1.8094,1.8099,1.8102,1.8105,0,0,0,0,0,0,0,1.7713,1.773,1.7904,1.7861,1.7863,1.7856,1.7868,1.7954,1.7986,1.7918,1.7916,1.7929,1.8022,1.8054,1.8064,1.8198,1.8094,1.8101,1.8106,1.8109,1.8427,1.8431,0,0,0,0,0,0,1.7704,1.7724,1.79,1.7907,1.7782,1.7863,1.7876,1.792,1.7985,1.7992,1.7932,1.7928,1.8042,1.8055,1.8068,1.8208,1.8102,1.811,1.8114,1.8424,1.8428,1.8432,0,0,0,0,0,0,1.7699,1.772,1.7896,1.7815,1.7837,1.7871,1.792,1.7924,1.7955,1.7996,1.8002,1.7958,1.804,1.8057,1.8156,1.8211,1.8113,1.812,1.8419,1.8425,1.843,1.8488,0,0,0,0,0,0,1.7692,1.7718,1.7763,1.7817,1.7842,1.7982,1.7923,1.7928,1.7968,1.7964,1.8022,1.8028,1.8038,1.8144,1.8164,1.822,1.8126,1.8415,1.8422,1.8428,1.8482,1.8495,1.8507,0,0,0,0,0,1.7684,1.7775,1.7765,1.7786,1.7898,1.7985,1.8,1.8009,1.7973,1.8018,1.8044,1.8027,1.8202,1.8155,1.8176,1.8236,1.8411,1.842,1.8428,1.8476,1.8492,1.8506,0,0,0,0,0,0,1.7727,1.7782,1.7772,1.7883,1.793,1.798,1.8037,1.8026,1.8085,1.8078,1.8087,1.81,1.8202,1.8229,1.8176,1.8351,1.8301,1.8314,1.833,1.8346,1.8359,1.8351,1.8133,0,0,0,0,0,1.775,1.7816,1.786,1.7954,1.7978,1.8004,1.8042,1.8045,1.8094,1.8114,1.8148,1.8196,1.8262,1.8306,1.8369,1.8485,1.8497,1.8536,1.8549,1.8559,1.8571,1.8634,1.8652,1.846,1.846,1.846,0,0,1.7797,1.7835,1.7877,1.7964,1.8001,1.8069,1.8021,1.8096,1.8147,1.8126,1.8221,1.8248,1.8302,1.8411,1.846,1.8436,1.8626,1.857,1.8578,1.8584,1.8644,1.8663,1.8679,1.8466,1.8465,1.8464,0,0,1.7919,1.7954,1.8036,1.8074,1.8129,1.8145,1.8165,1.8217,1.8233,1.8329,1.8315,1.8376,1.8489,1.8529,1.8564,1.8699,1.8685,1.8719,1.8785,1.8847,1.8862,1.8875,1.8924,1.8941,1.873,1.873,1.873,0,1.7972,1.8074,1.808,1.8156,1.8195,1.8178,1.8261,1.8297,1.8371,1.8398,1.837,1.8511,1.8547,1.8664,1.8697,1.8726,1.8749,1.8713,1.8859,1.8873,1.8885,1.8932,1.895,1.8734,1.8734,1.8733,1.8733,0,1.8136,1.8207,1.8267,1.8337,1.8383,1.8462,1.848,1.8526,1.8524,1.8543,1.8641,1.8683,1.8754,1.8781,1.8781,1.8899,1.8882,1.8857,1.8807,1.8907,1.8951,1.8969,1.874,1.8738,1.8737,1.8736,0,0,1.829,1.8362,1.8384,1.8415,1.8474,1.853,1.8608,1.8676,1.8715,1.8766,1.8832,1.8928,1.8904,1.8944,1.8948,1.9002,1.9106,1.8969,1.8971,1.8994,1.9238,1.9258,1.9278,1.9097,1.91,1.9103,1.9234,0,1.8418,1.8555,1.8562,1.8687,1.8753,1.8737,1.8805,1.8849,1.8868,1.8927,1.8949,1.9017,1.898,1.9004,1.9057,1.9082,1.9155,1.9073,1.9159,1.9162,1.9147,1.9301,1.9322,1.9444,1.9251,1.9254,1.9256,0,1.8586,1.864,1.8772,1.8821,1.8849,1.891,1.8973,1.9029,1.9078,1.9088,1.9132,1.9128,1.9208,1.9154,1.9265,1.9209,1.9244,1.9262,1.9267,1.9276,1.9216,1.9315,1.9483,1.9502,1.9283,1.9281,1.9279,0,1.8686,1.8792,1.8885,1.8912,1.8971,1.9014,1.9041,1.9087,1.9127,1.9182,1.9208,1.9272,1.9308,1.9357,1.937,1.933,1.9481,1.9429,1.9493,1.9492,1.9526,1.9524,1.9703,1.9548,1.9548,1.9547,1.9547,0,1.8828,1.8909,1.893,1.8987,1.9078,1.9085,1.9174,1.9198,1.9238,1.93,1.9289,1.9347,1.936,1.9421,1.9431,1.9522,1.9537,1.9548,1.955,1.955,1.9549,1.9574,1.9566,1.9552,1.9551,1.955,1.9549,0,1.8956,1.8973,1.9073,1.912,1.9134,1.9198,1.9239,1.9293,1.9311,1.9388,1.9407,1.9435,1.9506,1.9523,1.9607,1.9614,1.9721,1.9715,1.9705,1.9705,1.9768,1.9762,1.997,1.9998,1.9824,1.9825,1.9827,0,1.9047,1.9108,1.9162,1.9201,1.923,1.9294,1.9335,1.9344,1.9387,1.9446,1.9494,1.9563,1.9619,1.9733,1.9761,1.9825,1.9821,1.9889,1.983,1.9828,1.9822,1.9819,1.9825,1.9901,1.9902,1.9904,1.9905,0,1.9205,1.921,1.9269,1.9331,1.9379,1.9428,1.9475,1.9509,1.9524,1.9573,1.9644,1.9688,1.9773,1.9842,1.9906,1.9934,1.9923,1.9923,1.9941,1.9942,1.9934,1.994,1.9736,1.9919,1.9917,1.9916,1.9916,1.9915,1.9318,1.9372,1.9417,1.9483,1.9519,1.9562,1.9616,1.9639,1.9699,1.9768,1.977,1.9848,1.9894,1.9979,2.0011,2.0072,2.0051,2.0078,2.0085,2.0091,2.0097,1.9923,2.0084,2.0083,2.0083,2.0083,2.0083,0,1.9476,1.9504,1.9564,1.963,1.9681,1.9664,1.9715,1.9759,1.9828,1.9872,1.9926,2.0008,2.0074,2.0107,2.0172,2.0215,2.0212,2.0232,2.023,2.0236,2.0112,2.009,2.0234,2.0234,2.0234,2.0234,2.0234,2.0234,1.9565,1.9655,1.9665,1.9773,1.98,1.9876,1.9906,1.9947,1.9982,2.0073,2.0128,2.0148,2.0187,2.0256,2.0316,2.0323,2.0348,2.0372,2.0377,2.0261,2.0245,2.0231,2.021,2.0377,2.0377,2.0497,2.0498,2.0499]},{"header":{"parameterUnit":"m.s-1","parameterCategory":1,"la1":30.2991,"la2":30.254,"lo1":-89.0895,"lo2":-89.0444,"dy":0.0017,"dx":0.0017,"nx":28,"ny":28,"refTime":"2024-07-10T03:00:00:Z","depth":0,"parameterNumber":3,"parameterNumberName":"V-component_of_WINDS"},"data":[0,0,0,0,0,0,0,0,0,0,0,0,0,0,0,0,0,0,0,0,0,0,0,0,0,0,0,0,0,0,0,0,0,0,0,0,0,0,0,0,0,0,0,0,0,0,0,0,0,0,0,0,0,0,0,0,0,0,-1.6072,-1.6072,0,-1.611,-1.611,-1.6111,-1.6116,-1.6115,-1.6115,-1.6115,-1.6153,-1.6154,-1.6155,0,0,0,0,0,0,0,0,0,0,0,0,0,-1.6003,-1.6004,-1.6072,-1.6072,-1.6073,-1.611,-1.611,-1.6111,-1.6116,-1.6115,-1.6115,-1.6115,-1.6152,-1.6154,-1.6156,0,0,0,0,0,0,0,0,0,0,0,0,0,-1.6036,-1.6005,-1.6072,-1.608,-1.6081,-1.611,-1.611,-1.6111,-1.6116,-1.6115,-1.6115,-1.6114,-1.6152,-1.6154,-1.6156,-1.6179,0,0,-1.6162,-1.6163,0,0,0,0,0,0,0,0,-1.6034,-1.6039,-1.6078,-1.6079,-1.6081,-1.6108,-1.61,-1.6134,-1.6116,-1.6103,-1.6115,-1.6114,-1.6138,-1.6141,-1.6149,-1.6181,-1.6182,-1.6162,-1.6163,-1.6164,-1.6165,0,0,0,0,0,0,0,-1.6032,-1.6037,-1.6087,-1.6079,-1.608,-1.6081,-1.6085,-1.6106,-1.6123,-1.6104,-1.6104,-1.6109,-1.6139,-1.6148,-1.615,-1.6183,-1.6162,-1.6164,-1.6165,-1.6166,-1.6234,-1.6235,0,0,0,0,0,0,-1.6028,-1.6035,-1.6086,-1.6088,-1.6056,-1.6083,-1.6088,-1.6099,-1.6123,-1.6126,-1.6109,-1.6109,-1.6144,-1.6148,-1.6152,-1.618,-1.6164,-1.6166,-1.6167,-1.6234,-1.6234,-1.6235,0,0,0,0,0,0,-1.6027,-1.6033,-1.6084,-1.6062,-1.6068,-1.6085,-1.6098,-1.61,-1.6109,-1.6127,-1.613,-1.6115,-1.6144,-1.6149,-1.6172,-1.6181,-1.6167,-1.6169,-1.6233,-1.6234,-1.6235,-1.6236,0,0,0,0,0,0,-1.6025,-1.6032,-1.6041,-1.6062,-1.6069,-1.6104,-1.6099,-1.6102,-1.6113,-1.6113,-1.6133,-1.6136,-1.6144,-1.6169,-1.6174,-1.6184,-1.617,-1.6232,-1.6233,-1.6235,-1.6235,-1.6237,-1.6238,0,0,0,0,0,-1.6022,-1.604,-1.6042,-1.6048,-1.6081,-1.6104,-1.6109,-1.6118,-1.6114,-1.6123,-1.6134,-1.6135,-1.618,-1.6171,-1.6177,-1.6187,-1.6232,-1.6233,-1.6234,-1.6235,-1.6237,-1.6238,0,0,0,0,0,0,-1.6019,-1.6043,-1.6045,-1.607,-1.6085,-1.6105,-1.6117,-1.612,-1.6136,-1.6135,-1.6146,-1.6151,-1.6173,-1.6183,-1.6173,-1.6211,-1.6205,-1.6208,-1.6203,-1.6205,-1.6207,-1.6204,-1.6172,0,0,0,0,0,-1.6022,-1.6039,-1.6058,-1.6078,-1.6086,-1.61,-1.6111,-1.6116,-1.6132,-1.6139,-1.6152,-1.6167,-1.6185,-1.6196,-1.6213,-1.6237,-1.6241,-1.6247,-1.6249,-1.625,-1.6251,-1.6265,-1.6267,-1.624,-1.624,-1.624,0,0,-1.6026,-1.6041,-1.6051,-1.6078,-1.6091,-1.6108,-1.6105,-1.6124,-1.6136,-1.6142,-1.6164,-1.6174,-1.6192,-1.6216,-1.6227,-1.6225,-1.626,-1.6252,-1.6252,-1.6253,-1.6266,-1.6269,-1.6271,-1.6241,-1.624,-1.624,0,0,-1.6044,-1.6057,-1.6075,-1.6088,-1.6107,-1.6116,-1.6121,-1.6141,-1.6147,-1.617,-1.6175,-1.619,-1.622,-1.6232,-1.6242,-1.6265,-1.6267,-1.627,-1.6278,-1.6291,-1.6293,-1.6295,-1.6302,-1.6305,-1.6272,-1.6272,-1.6272,0,-1.6047,-1.6073,-1.6084,-1.6102,-1.6113,-1.6119,-1.6137,-1.6149,-1.6173,-1.618,-1.6178,-1.6215,-1.6228,-1.6254,-1.626,-1.6268,-1.6273,-1.6267,-1.6292,-1.6294,-1.6296,-1.6303,-1.6306,-1.6273,-1.6273,-1.6273,-1.6273,0,-1.6076,-1.6094,-1.6106,-1.6129,-1.6142,-1.616,-1.6173,-1.6185,-1.619,-1.62,-1.6223,-1.6238,-1.6258,-1.6265,-1.627,-1.6292,-1.629,-1.629,-1.6284,-1.6298,-1.6305,-1.6308,-1.6273,-1.6273,-1.6273,-1.6273,0,0,-1.6091,-1.612,-1.6124,-1.6135,-1.6157,-1.6171,-1.6189,-1.6209,-1.6219,-1.6235,-1.625,-1.6276,-1.6275,-1.6287,-1.6294,-1.6305,-1.6321,-1.6303,-1.6304,-1.6305,-1.6346,-1.6345,-1.6348,-1.6323,-1.6324,-1.6324,-1.6344,0,-1.611,-1.6143,-1.6153,-1.6181,-1.6197,-1.6204,-1.622,-1.6235,-1.6244,-1.626,-1.6271,-1.6288,-1.6287,-1.6294,-1.6305,-1.6317,-1.6329,-1.6316,-1.6337,-1.6337,-1.6331,-1.6352,-1.6352,-1.637,-1.6347,-1.6347,-1.6348,0,-1.6136,-1.6153,-1.6182,-1.6202,-1.621,-1.6224,-1.6243,-1.6258,-1.6275,-1.6281,-1.6295,-1.63,-1.632,-1.6314,-1.634,-1.6331,-1.634,-1.6347,-1.6348,-1.6349,-1.6342,-1.6353,-1.6376,-1.6378,-1.6352,-1.6352,-1.6351,0,-1.6143,-1.6174,-1.6195,-1.6204,-1.6228,-1.6237,-1.6248,-1.6265,-1.6276,-1.6293,-1.63,-1.6319,-1.6329,-1.6343,-1.6354,-1.6349,-1.6379,-1.6375,-1.6384,-1.6384,-1.6389,-1.6389,-1.6413,-1.6397,-1.6397,-1.6397,-1.6397,0,-1.6163,-1.618,-1.6198,-1.6211,-1.6231,-1.6243,-1.6261,-1.6272,-1.6287,-1.6302,-1.6309,-1.6323,-1.6337,-1.6352,-1.6361,-1.6381,-1.6386,-1.6391,-1.6393,-1.639,-1.6389,-1.6395,-1.6394,-1.6398,-1.6398,-1.6398,-1.6397,0,-1.6173,-1.6186,-1.621,-1.6231,-1.6237,-1.625,-1.6268,-1.628,-1.6291,-1.631,-1.6315,-1.6331,-1.635,-1.6362,-1.6386,-1.6392,-1.6413,-1.6416,-1.6407,-1.6408,-1.6417,-1.6416,-1.6445,-1.6449,-1.6432,-1.6432,-1.6432,0,-1.6184,-1.6198,-1.622,-1.6231,-1.6241,-1.6259,-1.627,-1.6283,-1.6294,-1.6315,-1.6325,-1.6345,-1.6361,-1.6391,-1.6404,-1.6423,-1.6425,-1.6434,-1.6427,-1.6424,-1.6424,-1.6422,-1.6423,-1.6434,-1.6434,-1.6435,-1.6435,0,-1.6202,-1.6208,-1.6225,-1.6244,-1.6258,-1.6273,-1.6289,-1.6297,-1.6312,-1.6325,-1.6345,-1.6357,-1.6382,-1.6401,-1.642,-1.6431,-1.6435,-1.6437,-1.644,-1.6436,-1.6431,-1.6433,-1.6409,-1.6436,-1.6436,-1.6436,-1.6436,-1.6435,-1.6212,-1.6225,-1.6242,-1.6261,-1.6274,-1.6288,-1.6301,-1.6314,-1.633,-1.6351,-1.6358,-1.6378,-1.6395,-1.6422,-1.6433,-1.6449,-1.6448,-1.6452,-1.6453,-1.6454,-1.6453,-1.6429,-1.6452,-1.6452,-1.6452,-1.6452,-1.6452,0,-1.623,-1.6242,-1.6259,-1.628,-1.6295,-1.6298,-1.6316,-1.6327,-1.6345,-1.6361,-1.6377,-1.6399,-1.6418,-1.6433,-1.6452,-1.6462,-1.6464,-1.6466,-1.6465,-1.6468,-1.6454,-1.6449,-1.6464,-1.6464,-1.6464,-1.6464,-1.6464,-1.6464,-1.624,-1.6261,-1.6269,-1.6296,-1.6308,-1.6328,-1.6338,-1.6351,-1.6364,-1.6388,-1.6404,-1.6414,-1.643,-1.645,-1.6467,-1.6471,-1.6478,-1.6479,-1.6483,-1.647,-1.6469,-1.6467,-1.6463,-1.6481,-1.6481,-1.6496,-1.6496,-1.6496]}]]